Datum;Uhrzeit;Doro;Brinck
01.01.2019;01:00;49;31
01.01.2019;02:00;31;21
01.01.2019;03:00;23;12
01.01.2019;04:00;18;9
01.01.2019;05:00;14;7
01.01.2019;06:00;16;6
01.01.2019;07:00;16;8
01.01.2019;08:00;17;6
01.01.2019;09:00;18;5
01.01.2019;10:00;18;5
01.01.2019;11:00;17;7
01.01.2019;12:00;16;9
01.01.2019;13:00;18;10
01.01.2019;14:00;22;13
01.01.2019;15:00;23;14
01.01.2019;16:00;22;11
01.01.2019;17:00;18;15
01.01.2019;18:00;19;11
01.01.2019;19:00;17;7
01.01.2019;20:00;15;7
01.01.2019;21:00;16;5
01.01.2019;22:00;;9
01.01.2019;23:00;15;7
01.01.2019;24:00:00;12;5
02.01.2019;01:00;8;4
02.01.2019;02:00;9;4
02.01.2019;03:00;8;2
02.01.2019;04:00;10;2
02.01.2019;05:00;13;4
02.01.2019;06:00;19;10
02.01.2019;07:00;29;12
02.01.2019;08:00;31;17
02.01.2019;09:00;33;23
02.01.2019;10:00;31;22
02.01.2019;11:00;30;20
02.01.2019;12:00;32;18
02.01.2019;13:00;47;18
02.01.2019;14:00;42;21
02.01.2019;15:00;50;21
02.01.2019;16:00;55;21
02.01.2019;17:00;82;32
02.01.2019;18:00;93;56
02.01.2019;19:00;96;60
02.01.2019;20:00;88;57
02.01.2019;21:00;83;50
02.01.2019;22:00;78;51
02.01.2019;23:00;;53
02.01.2019;24:00:00;56;51
03.01.2019;01:00;53;58
03.01.2019;02:00;50;48
03.01.2019;03:00;42;38
03.01.2019;04:00;44;36
03.01.2019;05:00;42;31
03.01.2019;06:00;44;33
03.01.2019;07:00;56;35
03.01.2019;08:00;52;44
03.01.2019;09:00;50;44
03.01.2019;10:00;57;43
03.01.2019;11:00;53;41
03.01.2019;12:00;55;33
03.01.2019;13:00;47;32
03.01.2019;14:00;47;30
03.01.2019;15:00;52;29
03.01.2019;16:00;53;34
03.01.2019;17:00;49;30
03.01.2019;18:00;45;32
03.01.2019;19:00;47;30
03.01.2019;20:00;43;29
03.01.2019;21:00;43;31
03.01.2019;22:00;46;30
03.01.2019;23:00;49;31
03.01.2019;24:00:00;;38
04.01.2019;01:00;41;33
04.01.2019;02:00;35;26
04.01.2019;03:00;33;23
04.01.2019;04:00;36;22
04.01.2019;05:00;39;32
04.01.2019;06:00;46;39
04.01.2019;07:00;56;47
04.01.2019;08:00;58;50
04.01.2019;09:00;62;53
04.01.2019;10:00;52;50
04.01.2019;11:00;50;46
04.01.2019;12:00;48;39
04.01.2019;13:00;41;32
04.01.2019;14:00;39;32
04.01.2019;15:00;46;
04.01.2019;16:00;45;38
04.01.2019;17:00;;39
04.01.2019;18:00;40;33
04.01.2019;19:00;35;28
04.01.2019;20:00;33;26
04.01.2019;21:00;31;23
04.01.2019;22:00;32;23
04.01.2019;23:00;35;24
04.01.2019;24:00:00;35;25
05.01.2019;01:00;;23
05.01.2019;02:00;24;20
05.01.2019;03:00;22;15
05.01.2019;04:00;19;14
05.01.2019;05:00;17;12
05.01.2019;06:00;19;10
05.01.2019;07:00;22;8
05.01.2019;08:00;19;17
05.01.2019;09:00;17;14
05.01.2019;10:00;22;15
05.01.2019;11:00;26;21
05.01.2019;12:00;28;24
05.01.2019;13:00;29;28
05.01.2019;14:00;27;21
05.01.2019;15:00;26;23
05.01.2019;16:00;28;23
05.01.2019;17:00;28;24
05.01.2019;18:00;28;30
05.01.2019;19:00;27;30
05.01.2019;20:00;26;23
05.01.2019;21:00;24;23
05.01.2019;22:00;22;31
05.01.2019;23:00;22;27
05.01.2019;24:00:00;18;23
06.01.2019;01:00;19;18
06.01.2019;02:00;;12
06.01.2019;03:00;16;13
06.01.2019;04:00;13;14
06.01.2019;05:00;14;16
06.01.2019;06:00;17;14
06.01.2019;07:00;17;11
06.01.2019;08:00;20;14
06.01.2019;09:00;19;18
06.01.2019;10:00;21;21
06.01.2019;11:00;26;22
06.01.2019;12:00;25;22
06.01.2019;13:00;33;26
06.01.2019;14:00;31;23
06.01.2019;15:00;29;24
06.01.2019;16:00;37;24
06.01.2019;17:00;36;27
06.01.2019;18:00;43;37
06.01.2019;19:00;47;39
06.01.2019;20:00;42;35
06.01.2019;21:00;38;39
06.01.2019;22:00;41;35
06.01.2019;23:00;36;35
06.01.2019;24:00:00;39;35
07.01.2019;01:00;37;36
07.01.2019;02:00;32;35
07.01.2019;03:00;;31
07.01.2019;04:00;35;31
07.01.2019;05:00;43;36
07.01.2019;06:00;48;33
07.01.2019;07:00;72;37
07.01.2019;08:00;64;44
07.01.2019;09:00;55;45
07.01.2019;10:00;57;44
07.01.2019;11:00;56;41
07.01.2019;12:00;50;38
07.01.2019;13:00;49;38
07.01.2019;14:00;50;38
07.01.2019;15:00;53;39
07.01.2019;16:00;53;37
07.01.2019;17:00;52;39
07.01.2019;18:00;53;39
07.01.2019;19:00;45;34
07.01.2019;20:00;39;25
07.01.2019;21:00;29;17
07.01.2019;22:00;23;10
07.01.2019;23:00;20;8
07.01.2019;24:00:00;19;6
08.01.2019;01:00;18;7
08.01.2019;02:00;14;5
08.01.2019;03:00;14;8
08.01.2019;04:00;;6
08.01.2019;05:00;18;12
08.01.2019;06:00;20;13
08.01.2019;07:00;28;17
08.01.2019;08:00;30;23
08.01.2019;09:00;36;24
08.01.2019;10:00;39;26
08.01.2019;11:00;30;23
08.01.2019;12:00;30;23
08.01.2019;13:00;31;21
08.01.2019;14:00;30;23
08.01.2019;15:00;30;22
08.01.2019;16:00;28;19
08.01.2019;17:00;32;20
08.01.2019;18:00;31;28
08.01.2019;19:00;31;24
08.01.2019;20:00;21;15
08.01.2019;21:00;21;17
08.01.2019;22:00;15;10
08.01.2019;23:00;14;10
08.01.2019;24:00:00;11;7
09.01.2019;01:00;11;7
09.01.2019;02:00;9;6
09.01.2019;03:00;11;8
09.01.2019;04:00;11;8
09.01.2019;05:00;;7
09.01.2019;06:00;18;10
09.01.2019;07:00;35;24
09.01.2019;08:00;43;38
09.01.2019;09:00;64;36
09.01.2019;10:00;60;44
09.01.2019;11:00;53;33
09.01.2019;12:00;52;30
09.01.2019;13:00;51;26
09.01.2019;14:00;47;26
09.01.2019;15:00;51;22
09.01.2019;16:00;56;25
09.01.2019;17:00;50;22
09.01.2019;18:00;61;20
09.01.2019;19:00;54;19
09.01.2019;20:00;45;17
09.01.2019;21:00;31;10
09.01.2019;22:00;33;11
09.01.2019;23:00;38;11
09.01.2019;24:00:00;33;15
10.01.2019;01:00;27;18
10.01.2019;02:00;24;18
10.01.2019;03:00;24;16
10.01.2019;04:00;29;15
10.01.2019;05:00;36;19
10.01.2019;06:00;;24
10.01.2019;07:00;69;32
10.01.2019;08:00;83;51
10.01.2019;09:00;78;58
10.01.2019;10:00;84;58
10.01.2019;11:00;79;58
10.01.2019;12:00;76;55
10.01.2019;13:00;82;52
10.01.2019;14:00;73;52
10.01.2019;15:00;73;47
10.01.2019;16:00;83;36
10.01.2019;17:00;73;59
10.01.2019;18:00;79;58
10.01.2019;19:00;73;57
10.01.2019;20:00;70;61
10.01.2019;21:00;72;62
10.01.2019;22:00;71;61
10.01.2019;23:00;66;58
10.01.2019;24:00:00;50;40
11.01.2019;01:00;28;29
11.01.2019;02:00;32;27
11.01.2019;03:00;28;25
11.01.2019;04:00;35;28
11.01.2019;05:00;32;21
11.01.2019;06:00;31;16
11.01.2019;07:00;;21
11.01.2019;08:00;57;39
11.01.2019;09:00;58;49
11.01.2019;10:00;57;45
11.01.2019;11:00;55;43
11.01.2019;12:00;54;42
11.01.2019;13:00;55;44
11.01.2019;14:00;54;44
11.01.2019;15:00;59;47
11.01.2019;16:00;62;54
11.01.2019;17:00;57;47
11.01.2019;18:00;56;41
11.01.2019;19:00;42;31
11.01.2019;20:00;41;27
11.01.2019;21:00;42;24
11.01.2019;22:00;33;21
11.01.2019;23:00;27;19
11.01.2019;24:00:00;28;16
12.01.2019;01:00;26;14
12.01.2019;02:00;18;10
12.01.2019;03:00;16;9
12.01.2019;04:00;17;8
12.01.2019;05:00;17;10
12.01.2019;06:00;19;12
12.01.2019;07:00;26;13
12.01.2019;08:00;;17
12.01.2019;09:00;30;16
12.01.2019;10:00;30;17
12.01.2019;11:00;28;19
12.01.2019;12:00;30;18
12.01.2019;13:00;30;20
12.01.2019;14:00;29;22
12.01.2019;15:00;31;24
12.01.2019;16:00;32;22
12.01.2019;17:00;37;23
12.01.2019;18:00;41;26
12.01.2019;19:00;37;26
12.01.2019;20:00;29;20
12.01.2019;21:00;29;20
12.01.2019;22:00;24;17
12.01.2019;23:00;22;15
12.01.2019;24:00:00;23;14
13.01.2019;01:00;19;10
13.01.2019;02:00;19;9
13.01.2019;03:00;21;9
13.01.2019;04:00;18;8
13.01.2019;05:00;19;8
13.01.2019;06:00;18;8
13.01.2019;07:00;18;8
13.01.2019;08:00;19;11
13.01.2019;09:00;;9
13.01.2019;10:00;20;9
13.01.2019;11:00;20;9
13.01.2019;12:00;24;10
13.01.2019;13:00;25;13
13.01.2019;14:00;25;11
13.01.2019;15:00;24;12
13.01.2019;16:00;23;12
13.01.2019;17:00;22;12
13.01.2019;18:00;22;11
13.01.2019;19:00;21;10
13.01.2019;20:00;18;8
13.01.2019;21:00;18;6
13.01.2019;22:00;17;10
13.01.2019;23:00;16;9
13.01.2019;24:00:00;16;9
14.01.2019;01:00;12;9
14.01.2019;02:00;11;6
14.01.2019;03:00;15;7
14.01.2019;04:00;13;6
14.01.2019;05:00;13;19
14.01.2019;06:00;19;20
14.01.2019;07:00;39;27
14.01.2019;08:00;40;33
14.01.2019;09:00;68;36
14.01.2019;10:00;;43
14.01.2019;11:00;56;35
14.01.2019;12:00;45;23
14.01.2019;13:00;38;20
14.01.2019;14:00;37;17
14.01.2019;15:00;48;21
14.01.2019;16:00;40;22
14.01.2019;17:00;41;21
14.01.2019;18:00;53;36
14.01.2019;19:00;52;41
14.01.2019;20:00;45;35
14.01.2019;21:00;36;34
14.01.2019;22:00;34;33
14.01.2019;23:00;27;23
14.01.2019;24:00:00;26;28
15.01.2019;01:00;29;28
15.01.2019;02:00;30;20
15.01.2019;03:00;32;18
15.01.2019;04:00;29;19
15.01.2019;05:00;30;19
15.01.2019;06:00;36;21
15.01.2019;07:00;50;30
15.01.2019;08:00;59;40
15.01.2019;09:00;51;40
15.01.2019;10:00;48;36
15.01.2019;11:00;;31
15.01.2019;12:00;45;31
15.01.2019;13:00;40;28
15.01.2019;14:00;40;26
15.01.2019;15:00;38;25
15.01.2019;16:00;39;29
15.01.2019;17:00;43;27
15.01.2019;18:00;43;26
15.01.2019;19:00;38;26
15.01.2019;20:00;34;21
15.01.2019;21:00;30;15
15.01.2019;22:00;25;13
15.01.2019;23:00;25;11
15.01.2019;24:00:00;21;8
16.01.2019;01:00;16;7
16.01.2019;02:00;13;2
16.01.2019;03:00;12;2
16.01.2019;04:00;12;2
16.01.2019;05:00;13;2
16.01.2019;06:00;18;5
16.01.2019;07:00;34;14
16.01.2019;08:00;40;27
16.01.2019;09:00;36;24
16.01.2019;10:00;33;17
16.01.2019;11:00;30;18
16.01.2019;12:00;;18
16.01.2019;13:00;27;15
16.01.2019;14:00;32;20
16.01.2019;15:00;29;17
16.01.2019;16:00;35;27
16.01.2019;17:00;55;40
16.01.2019;18:00;64;49
16.01.2019;19:00;67;52
16.01.2019;20:00;59;52
16.01.2019;21:00;27;17
16.01.2019;22:00;25;17
16.01.2019;23:00;33;24
16.01.2019;24:00:00;23;17
17.01.2019;01:00;14;4
17.01.2019;02:00;10;2
17.01.2019;03:00;12;2
17.01.2019;04:00;14;3
17.01.2019;05:00;17;6
17.01.2019;06:00;24;13
17.01.2019;07:00;45;24
17.01.2019;08:00;46;38
17.01.2019;09:00;50;31
17.01.2019;10:00;54;35
17.01.2019;11:00;60;40
17.01.2019;12:00;41;23
17.01.2019;13:00;;21
17.01.2019;14:00;39;28
17.01.2019;15:00;39;28
17.01.2019;16:00;44;36
17.01.2019;17:00;47;39
17.01.2019;18:00;52;38
17.01.2019;19:00;36;27
17.01.2019;20:00;36;29
17.01.2019;21:00;32;28
17.01.2019;22:00;29;21
17.01.2019;23:00;33;25
17.01.2019;24:00:00;29;20
18.01.2019;01:00;24;20
18.01.2019;02:00;21;19
18.01.2019;03:00;20;17
18.01.2019;04:00;23;21
18.01.2019;05:00;30;21
18.01.2019;06:00;52;26
18.01.2019;07:00;83;51
18.01.2019;08:00;92;58
18.01.2019;09:00;100;59
18.01.2019;10:00;97;60
18.01.2019;11:00;89;56
18.01.2019;12:00;69;46
18.01.2019;13:00;;42
18.01.2019;14:00;;40
18.01.2019;15:00;78;45
18.01.2019;16:00;84;60
18.01.2019;17:00;76;53
18.01.2019;18:00;85;55
18.01.2019;19:00;83;57
18.01.2019;20:00;79;58
18.01.2019;21:00;76;51
18.01.2019;22:00;68;57
18.01.2019;23:00;68;54
18.01.2019;24:00:00;62;53
19.01.2019;01:00;60;44
19.01.2019;02:00;56;52
19.01.2019;03:00;44;50
19.01.2019;04:00;40;53
19.01.2019;05:00;42;41
19.01.2019;06:00;44;43
19.01.2019;07:00;48;52
19.01.2019;08:00;53;51
19.01.2019;09:00;59;48
19.01.2019;10:00;61;45
19.01.2019;11:00;59;36
19.01.2019;12:00;52;28
19.01.2019;13:00;43;23
19.01.2019;14:00;44;19
19.01.2019;15:00;;22
19.01.2019;16:00;48;16
19.01.2019;17:00;51;16
19.01.2019;18:00;67;24
19.01.2019;19:00;72;29
19.01.2019;20:00;55;37
19.01.2019;21:00;45;21
19.01.2019;22:00;45;20
19.01.2019;23:00;44;53
19.01.2019;24:00:00;50;42
20.01.2019;01:00;43;24
20.01.2019;02:00;49;26
20.01.2019;03:00;48;31
20.01.2019;04:00;52;42
20.01.2019;05:00;50;41
20.01.2019;06:00;41;35
20.01.2019;07:00;55;32
20.01.2019;08:00;43;37
20.01.2019;09:00;53;42
20.01.2019;10:00;58;44
20.01.2019;11:00;54;37
20.01.2019;12:00;41;25
20.01.2019;13:00;36;19
20.01.2019;14:00;46;21
20.01.2019;15:00;55;20
20.01.2019;16:00;;38
20.01.2019;17:00;74;49
20.01.2019;18:00;83;57
20.01.2019;19:00;80;62
20.01.2019;20:00;74;57
20.01.2019;21:00;70;52
20.01.2019;22:00;70;49
20.01.2019;23:00;75;50
20.01.2019;24:00:00;73;49
21.01.2019;01:00;64;49
21.01.2019;02:00;58;50
21.01.2019;03:00;55;50
21.01.2019;04:00;57;46
21.01.2019;05:00;55;43
21.01.2019;06:00;63;43
21.01.2019;07:00;76;44
21.01.2019;08:00;82;47
21.01.2019;09:00;105;50
21.01.2019;10:00;94;52
21.01.2019;11:00;90;49
21.01.2019;12:00;70;46
21.01.2019;13:00;72;50
21.01.2019;14:00;67;53
21.01.2019;15:00;70;48
21.01.2019;16:00;73;51
21.01.2019;17:00;;58
21.01.2019;18:00;87;63
21.01.2019;19:00;91;69
21.01.2019;20:00;98;73
21.01.2019;21:00;89;69
21.01.2019;22:00;82;75
21.01.2019;23:00;72;71
21.01.2019;24:00:00;64;62
22.01.2019;01:00;58;53
22.01.2019;02:00;54;50
22.01.2019;03:00;51;49
22.01.2019;04:00;49;47
22.01.2019;05:00;50;47
22.01.2019;06:00;54;46
22.01.2019;07:00;66;45
22.01.2019;08:00;65;49
22.01.2019;09:00;66;43
22.01.2019;10:00;59;38
22.01.2019;11:00;59;32
22.01.2019;12:00;50;28
22.01.2019;13:00;49;29
22.01.2019;14:00;52;30
22.01.2019;15:00;52;36
22.01.2019;16:00;74;41
22.01.2019;17:00;76;35
22.01.2019;18:00;;38
22.01.2019;19:00;68;47
22.01.2019;20:00;56;48
22.01.2019;21:00;53;43
22.01.2019;22:00;49;37
22.01.2019;23:00;43;35
22.01.2019;24:00:00;43;36
23.01.2019;01:00;39;38
23.01.2019;02:00;36;37
23.01.2019;03:00;37;35
23.01.2019;04:00;38;38
23.01.2019;05:00;36;37
23.01.2019;06:00;47;40
23.01.2019;07:00;58;46
23.01.2019;08:00;58;46
23.01.2019;09:00;63;46
23.01.2019;10:00;69;40
23.01.2019;11:00;60;32
23.01.2019;12:00;59;26
23.01.2019;13:00;56;23
23.01.2019;14:00;60;25
23.01.2019;15:00;63;30
23.01.2019;16:00;81;35
23.01.2019;17:00;71;45
23.01.2019;18:00;66;44
23.01.2019;19:00;;41
23.01.2019;20:00;66;46
23.01.2019;21:00;55;41
23.01.2019;22:00;57;43
23.01.2019;23:00;53;39
23.01.2019;24:00:00;44;35
24.01.2019;01:00;39;29
24.01.2019;02:00;38;28
24.01.2019;03:00;32;23
24.01.2019;04:00;34;25
24.01.2019;05:00;41;27
24.01.2019;06:00;54;35
24.01.2019;07:00;65;45
24.01.2019;08:00;71;52
24.01.2019;09:00;74;51
24.01.2019;10:00;68;52
24.01.2019;11:00;66;47
24.01.2019;12:00;74;47
24.01.2019;13:00;64;40
24.01.2019;14:00;55;38
24.01.2019;15:00;58;40
24.01.2019;16:00;65;45
24.01.2019;17:00;65;50
24.01.2019;18:00;65;47
24.01.2019;19:00;74;42
24.01.2019;20:00;;49
24.01.2019;21:00;75;52
24.01.2019;22:00;75;57
24.01.2019;23:00;74;59
24.01.2019;24:00:00;69;58
25.01.2019;01:00;63;58
25.01.2019;02:00;63;56
25.01.2019;03:00;63;56
25.01.2019;04:00;64;57
25.01.2019;05:00;65;53
25.01.2019;06:00;65;50
25.01.2019;07:00;83;53
25.01.2019;08:00;81;64
25.01.2019;09:00;84;58
25.01.2019;10:00;78;56
25.01.2019;11:00;77;56
25.01.2019;12:00;75;49
25.01.2019;13:00;59;34
25.01.2019;14:00;48;26
25.01.2019;15:00;58;33
25.01.2019;16:00;70;45
25.01.2019;17:00;75;55
25.01.2019;18:00;63;43
25.01.2019;19:00;61;42
25.01.2019;20:00;62;43
25.01.2019;21:00;;41
25.01.2019;22:00;62;43
25.01.2019;23:00;56;40
25.01.2019;24:00:00;40;28
26.01.2019;01:00;41;28
26.01.2019;02:00;42;29
26.01.2019;03:00;43;31
26.01.2019;04:00;40;31
26.01.2019;05:00;39;28
26.01.2019;06:00;37;26
26.01.2019;07:00;36;25
26.01.2019;08:00;34;22
26.01.2019;09:00;34;19
26.01.2019;10:00;32;17
26.01.2019;11:00;33;20
26.01.2019;12:00;34;19
26.01.2019;13:00;38;21
26.01.2019;14:00;34;18
26.01.2019;15:00;34;16
26.01.2019;16:00;35;17
26.01.2019;17:00;46;21
26.01.2019;18:00;41;20
26.01.2019;19:00;44;25
26.01.2019;20:00;50;27
26.01.2019;21:00;42;23
26.01.2019;22:00;;23
26.01.2019;23:00;30;13
26.01.2019;24:00:00;28;14
27.01.2019;01:00;32;11
27.01.2019;02:00;29;9
27.01.2019;03:00;24;12
27.01.2019;04:00;26;14
27.01.2019;05:00;24;8
27.01.2019;06:00;19;10
27.01.2019;07:00;21;8
27.01.2019;08:00;32;10
27.01.2019;09:00;26;19
27.01.2019;10:00;35;30
27.01.2019;11:00;34;25
27.01.2019;12:00;32;14
27.01.2019;13:00;22;8
27.01.2019;14:00;22;10
27.01.2019;15:00;25;11
27.01.2019;16:00;28;12
27.01.2019;17:00;28;19
27.01.2019;18:00;32;26
27.01.2019;19:00;28;18
27.01.2019;20:00;28;14
27.01.2019;21:00;33;14
27.01.2019;22:00;27;15
27.01.2019;23:00;;11
27.01.2019;24:00:00;21;8
28.01.2019;01:00;17;5
28.01.2019;02:00;14;3
28.01.2019;03:00;12;2
28.01.2019;04:00;12;2
28.01.2019;05:00;13;2
28.01.2019;06:00;17;7
28.01.2019;07:00;23;15
28.01.2019;08:00;32;25
28.01.2019;09:00;37;30
28.01.2019;10:00;44;32
28.01.2019;11:00;45;39
28.01.2019;12:00;35;34
28.01.2019;13:00;;28
28.01.2019;14:00;35;30
28.01.2019;15:00;27;19
28.01.2019;16:00;34;27
28.01.2019;17:00;40;24
28.01.2019;18:00;36;24
28.01.2019;19:00;48;29
28.01.2019;20:00;43;31
28.01.2019;21:00;40;28
28.01.2019;22:00;38;28
28.01.2019;23:00;36;31
28.01.2019;24:00:00;;21
29.01.2019;01:00;28;21
29.01.2019;02:00;24;19
29.01.2019;03:00;24;14
29.01.2019;04:00;23;13
29.01.2019;05:00;27;15
29.01.2019;06:00;38;20
29.01.2019;07:00;40;33
29.01.2019;08:00;54;50
29.01.2019;09:00;62;50
29.01.2019;10:00;55;40
29.01.2019;11:00;56;41
29.01.2019;12:00;47;28
29.01.2019;13:00;37;18
29.01.2019;14:00;36;20
29.01.2019;15:00;43;24
29.01.2019;16:00;53;28
29.01.2019;17:00;48;25
29.01.2019;18:00;62;30
29.01.2019;19:00;86;40
29.01.2019;20:00;88;64
29.01.2019;21:00;73;63
29.01.2019;22:00;63;49
29.01.2019;23:00;42;39
29.01.2019;24:00:00;30;37
30.01.2019;01:00;;35
30.01.2019;02:00;24;37
30.01.2019;03:00;21;34
30.01.2019;04:00;21;33
30.01.2019;05:00;26;33
30.01.2019;06:00;42;17
30.01.2019;07:00;68;25
30.01.2019;08:00;76;39
30.01.2019;09:00;93;41
30.01.2019;10:00;90;33
30.01.2019;11:00;74;35
30.01.2019;12:00;76;42
30.01.2019;13:00;73;47
30.01.2019;14:00;73;42
30.01.2019;15:00;82;55
30.01.2019;16:00;81;63
30.01.2019;17:00;74;62
30.01.2019;18:00;71;58
30.01.2019;19:00;62;53
30.01.2019;20:00;60;50
30.01.2019;21:00;61;50
30.01.2019;22:00;64;52
30.01.2019;23:00;50;40
30.01.2019;24:00:00;43;31
31.01.2019;01:00;37;25
31.01.2019;02:00;;19
31.01.2019;03:00;42;25
31.01.2019;04:00;45;44
31.01.2019;05:00;54;58
31.01.2019;06:00;70;63
31.01.2019;07:00;87;67
31.01.2019;08:00;90;72
31.01.2019;09:00;113;67
31.01.2019;10:00;98;67
31.01.2019;11:00;88;53
31.01.2019;12:00;91;54
31.01.2019;13:00;90;53
31.01.2019;14:00;90;59
31.01.2019;15:00;76;49
31.01.2019;16:00;83;55
31.01.2019;17:00;78;59
31.01.2019;18:00;85;64
31.01.2019;19:00;90;65
31.01.2019;20:00;84;65
31.01.2019;21:00;71;60
31.01.2019;22:00;58;39
31.01.2019;23:00;47;34
31.01.2019;24:00:00;38;25
01.02.2019;01:00;28;17
01.02.2019;02:00;19;22
01.02.2019;03:00;;28
01.02.2019;04:00;19;14
01.02.2019;05:00;23;32
01.02.2019;06:00;39;18
01.02.2019;07:00;69;31
01.02.2019;08:00;74;53
01.02.2019;09:00;86;60
01.02.2019;10:00;84;56
01.02.2019;11:00;80;
01.02.2019;12:00;77;
01.02.2019;13:00;;
01.02.2019;14:00;68;
01.02.2019;15:00;68;
01.02.2019;16:00;57;
01.02.2019;17:00;60;
01.02.2019;18:00;74;
01.02.2019;19:00;79;
01.02.2019;20:00;80;
01.02.2019;21:00;79;
01.02.2019;22:00;80;
01.02.2019;23:00;85;
01.02.2019;24:00:00;79;
02.02.2019;01:00;71;
02.02.2019;02:00;66;
02.02.2019;03:00;68;
02.02.2019;04:00;;
02.02.2019;05:00;55;
02.02.2019;06:00;54;
02.02.2019;07:00;57;
02.02.2019;08:00;66;
02.02.2019;09:00;65;
02.02.2019;10:00;73;
02.02.2019;11:00;72;
02.02.2019;12:00;63;
02.02.2019;13:00;58;
02.02.2019;14:00;59;
02.02.2019;15:00;61;
02.02.2019;16:00;61;
02.02.2019;17:00;53;
02.02.2019;18:00;58;
02.02.2019;19:00;63;
02.02.2019;20:00;60;
02.02.2019;21:00;59;
02.02.2019;22:00;51;
02.02.2019;23:00;43;
02.02.2019;24:00:00;43;
03.02.2019;01:00;48;
03.02.2019;02:00;47;
03.02.2019;03:00;37;
03.02.2019;04:00;35;
03.02.2019;05:00;;
03.02.2019;06:00;39;
03.02.2019;07:00;45;
03.02.2019;08:00;42;
03.02.2019;09:00;43;
03.02.2019;10:00;45;
03.02.2019;11:00;39;
03.02.2019;12:00;41;
03.02.2019;13:00;43;
03.02.2019;14:00;45;
03.02.2019;15:00;45;
03.02.2019;16:00;38;
03.02.2019;17:00;33;
03.02.2019;18:00;46;
03.02.2019;19:00;52;
03.02.2019;20:00;58;
03.02.2019;21:00;61;
03.02.2019;22:00;63;
03.02.2019;23:00;54;
03.02.2019;24:00:00;56;
04.02.2019;01:00;57;
04.02.2019;02:00;55;
04.02.2019;03:00;52;
04.02.2019;04:00;49;
04.02.2019;05:00;53;
04.02.2019;06:00;;
04.02.2019;07:00;71;
04.02.2019;08:00;73;
04.02.2019;09:00;75;
04.02.2019;10:00;70;
04.02.2019;11:00;62;
04.02.2019;12:00;60;
04.02.2019;13:00;54;
04.02.2019;14:00;46;
04.02.2019;15:00;48;
04.02.2019;16:00;47;
04.02.2019;17:00;52;
04.02.2019;18:00;50;
04.02.2019;19:00;46;
04.02.2019;20:00;45;
04.02.2019;21:00;41;
04.02.2019;22:00;43;
04.02.2019;23:00;38;
04.02.2019;24:00:00;25;
05.02.2019;01:00;20;
05.02.2019;02:00;26;
05.02.2019;03:00;27;
05.02.2019;04:00;25;
05.02.2019;05:00;31;
05.02.2019;06:00;51;
05.02.2019;07:00;;
05.02.2019;08:00;79;
05.02.2019;09:00;87;
05.02.2019;10:00;76;
05.02.2019;11:00;73;
05.02.2019;12:00;67;
05.02.2019;13:00;51;
05.02.2019;14:00;53;
05.02.2019;15:00;58;
05.02.2019;16:00;65;
05.02.2019;17:00;69;
05.02.2019;18:00;86;
05.02.2019;19:00;88;
05.02.2019;20:00;77;
05.02.2019;21:00;63;
05.02.2019;22:00;64;
05.02.2019;23:00;65;
05.02.2019;24:00:00;58;
06.02.2019;01:00;58;
06.02.2019;02:00;50;
06.02.2019;03:00;41;
06.02.2019;04:00;42;
06.02.2019;05:00;45;
06.02.2019;06:00;50;
06.02.2019;07:00;70;
06.02.2019;08:00;;
06.02.2019;09:00;76;
06.02.2019;10:00;72;
06.02.2019;11:00;65;
06.02.2019;12:00;75;
06.02.2019;13:00;72;
06.02.2019;14:00;75;
06.02.2019;15:00;76;
06.02.2019;16:00;92;
06.02.2019;17:00;85;
06.02.2019;18:00;80;
06.02.2019;19:00;63;
06.02.2019;20:00;72;
06.02.2019;21:00;68;
06.02.2019;22:00;64;
06.02.2019;23:00;56;
06.02.2019;24:00:00;49;
07.02.2019;01:00;43;
07.02.2019;02:00;39;
07.02.2019;03:00;35;
07.02.2019;04:00;32;
07.02.2019;05:00;34;
07.02.2019;06:00;43;
07.02.2019;07:00;66;
07.02.2019;08:00;72;
07.02.2019;09:00;;
07.02.2019;10:00;72;
07.02.2019;11:00;42;
07.02.2019;12:00;32;
07.02.2019;13:00;30;
07.02.2019;14:00;25;
07.02.2019;15:00;26;
07.02.2019;16:00;27;
07.02.2019;17:00;25;
07.02.2019;18:00;26;
07.02.2019;19:00;31;
07.02.2019;20:00;28;
07.02.2019;21:00;23;
07.02.2019;22:00;21;
07.02.2019;23:00;19;
07.02.2019;24:00:00;15;
08.02.2019;01:00;13;
08.02.2019;02:00;15;
08.02.2019;03:00;17;
08.02.2019;04:00;20;
08.02.2019;05:00;26;
08.02.2019;06:00;30;
08.02.2019;07:00;48;
08.02.2019;08:00;53;
08.02.2019;09:00;55;
08.02.2019;10:00;;
08.02.2019;11:00;41;
08.02.2019;12:00;44;
08.02.2019;13:00;45;
08.02.2019;14:00;44;
08.02.2019;15:00;44;
08.02.2019;16:00;46;
08.02.2019;17:00;43;
08.02.2019;18:00;38;
08.02.2019;19:00;44;
08.02.2019;20:00;33;
08.02.2019;21:00;25;
08.02.2019;22:00;23;
08.02.2019;23:00;26;
08.02.2019;24:00:00;18;
09.02.2019;01:00;19;
09.02.2019;02:00;17;
09.02.2019;03:00;15;
09.02.2019;04:00;15;
09.02.2019;05:00;11;
09.02.2019;06:00;14;
09.02.2019;07:00;16;
09.02.2019;08:00;17;
09.02.2019;09:00;20;
09.02.2019;10:00;17;
09.02.2019;11:00;;
09.02.2019;12:00;15;
09.02.2019;13:00;16;
09.02.2019;14:00;17;
09.02.2019;15:00;19;
09.02.2019;16:00;19;
09.02.2019;17:00;23;
09.02.2019;18:00;21;
09.02.2019;19:00;22;
09.02.2019;20:00;22;
09.02.2019;21:00;23;
09.02.2019;22:00;29;
09.02.2019;23:00;30;
09.02.2019;24:00:00;34;
10.02.2019;01:00;31;
10.02.2019;02:00;20;
10.02.2019;03:00;18;
10.02.2019;04:00;24;
10.02.2019;05:00;28;
10.02.2019;06:00;23;
10.02.2019;07:00;18;
10.02.2019;08:00;31;
10.02.2019;09:00;26;
10.02.2019;10:00;22;
10.02.2019;11:00;22;
10.02.2019;12:00;;
10.02.2019;13:00;18;
10.02.2019;14:00;19;
10.02.2019;15:00;19;
10.02.2019;16:00;20;
10.02.2019;17:00;20;
10.02.2019;18:00;23;
10.02.2019;19:00;23;
10.02.2019;20:00;19;
10.02.2019;21:00;19;
10.02.2019;22:00;18;
10.02.2019;23:00;15;
10.02.2019;24:00:00;12;
11.02.2019;01:00;12;
11.02.2019;02:00;11;
11.02.2019;03:00;10;
11.02.2019;04:00;14;
11.02.2019;05:00;15;
11.02.2019;06:00;23;
11.02.2019;07:00;38;
11.02.2019;08:00;44;
11.02.2019;09:00;49;
11.02.2019;10:00;41;
11.02.2019;11:00;44;
11.02.2019;12:00;41;
11.02.2019;13:00;;
11.02.2019;14:00;50;
11.02.2019;15:00;41;
11.02.2019;16:00;49;
11.02.2019;17:00;51;
11.02.2019;18:00;42;
11.02.2019;19:00;50;
11.02.2019;20:00;59;
11.02.2019;21:00;63;
11.02.2019;22:00;48;
11.02.2019;23:00;42;
11.02.2019;24:00:00;40;
12.02.2019;01:00;38;
12.02.2019;02:00;38;
12.02.2019;03:00;38;
12.02.2019;04:00;38;
12.02.2019;05:00;35;
12.02.2019;06:00;47;
12.02.2019;07:00;65;
12.02.2019;08:00;61;
12.02.2019;09:00;76;
12.02.2019;10:00;65;
12.02.2019;11:00;58;
12.02.2019;12:00;55;
12.02.2019;13:00;47;
12.02.2019;14:00;;
12.02.2019;15:00;42;